| time (UTC) | temp C | wind direction | speed KPH | gust KPH | rain 1hr cm | rain 24hr cm | rain mn cm | humidity % | barometer mb |
| 20260904121554 | 15 | 159 | 4.8 | 32.2 | 0.00 | 0.00 | 0.00 | 53 | 1012.0 |
| 20260904120054 | 15 | 152 | 6.4 | 27.4 | 0.00 | 0.00 | 0.00 | 52 | 1012.0 |
| 20260904114553 | 15 | 154 | 6.4 | 17.7 | 0.00 | 0.00 | 0.00 | 52 | 1011.8 |
| 20260904113052 | 15 | 147 | 4.8 | 22.5 | 0.00 | 0.00 | 0.00 | 52 | 1011.8 |
| 20260904111553 | 15 | 156 | 4.8 | 17.7 | 0.00 | 0.00 | 0.00 | 52 | 1011.8 |
| 20260904110054 | 15 | 128 | 6.4 | 20.9 | 0.00 | 0.00 | 0.00 | 51 | 1011.9 |
| 20260904104604 | 15 | 63 | 4.8 | 17.7 | 0.00 | 0.00 | 0.00 | 51 | 1011.9 |
| 20260904103056 | 15 | 155 | 6.4 | 19.3 | 0.00 | 0.00 | 0.00 | 51 | 1011.8 |
| 20260904101551 | 15 | 167 | 4.8 | 25.7 | 0.00 | 0.00 | 0.00 | 52 | 1011.8 |
| 20260904100045 | 15 | 162 | 6.4 | 22.5 | 0.00 | 0.00 | 0.00 | 52 | 1012.0 |
| 20260904094558 | 15 | 159 | 6.4 | 16.1 | 0.00 | 0.00 | 0.00 | 52 | 1011.8 |
| 20260904093056 | 16 | 96 | 6.4 | 19.3 | 0.00 | 0.00 | 0.00 | 51 | 1011.9 |
| 20260904091606 | 16 | 171 | 6.4 | 20.9 | 0.00 | 0.00 | 0.00 | 51 | 1012.0 |
| 20260904090051 | 16 | 125 | 6.4 | 17.7 | 0.00 | 0.00 | 0.00 | 51 | 1012.1 |
| 20260904084546 | 15 | 153 | 6.4 | 20.9 | 0.00 | 0.00 | 0.00 | 51 | 1012.2 |
| 20260904083107 | 15 | 146 | 6.4 | 22.5 | 0.00 | 0.00 | 0.00 | 51 | 1012.3 |
| 20260904081550 | 15 | 167 | 8.0 | 19.3 | 0.00 | 0.00 | 0.00 | 52 | 1012.3 |
| 20260904080045 | 15 | 130 | 1.6 | 14.5 | 0.00 | 0.00 | 0.00 | 51 | 1012.4 |
| 20260904074606 | 15 | 180 | 4.8 | 14.5 | 0.00 | 0.00 | 0.00 | 51 | 1012.5 |
| 20260904073053 | 15 | 101 | 4.8 | 16.1 | 0.00 | 0.00 | 0.00 | 51 | 1012.5 |
| 20260904071547 | 15 | 177 | 6.4 | 17.7 | 0.00 | 0.00 | 0.00 | 50 | 1012.4 |
| 20260904070056 | 15 | 109 | 6.4 | 27.4 | 0.00 | 0.00 | 0.00 | 49 | 1012.3 |
| 20260904064553 | 15 | 134 | 4.8 | 19.3 | 0.00 | 0.00 | 0.00 | 49 | 1012.4 |
| 20260904063053 | 15 | 156 | 6.4 | 22.5 | 0.00 | 0.00 | 0.00 | 49 | 1012.2 |
| 20260904061546 | 15 | 178 | 9.7 | 25.7 | 0.00 | 0.00 | 0.00 | 48 | 1012.2 |
| 20260904060045 | 15 | 158 | 8.0 | 22.5 | 0.00 | 0.00 | 0.00 | 48 | 1012.3 |
| 20260904054558 | 15 | 103 | 9.7 | 22.5 | 0.00 | 0.00 | 0.00 | 48 | 1012.4 |
| 20260904053047 | 15 | 163 | 6.4 | 17.7 | 0.00 | 0.00 | 0.00 | 48 | 1012.5 |
| 20260904051548 | 16 | 173 | 8.0 | 27.4 | 0.00 | 0.00 | 0.00 | 47 | 1012.8 |
| 20260904044605 | 16 | 156 | 8.0 | 30.6 | 0.00 | 0.00 | 0.00 | 47 | 1012.9 |
| 20260904043055 | 16 | 157 | 6.4 | 25.7 | 0.00 | 0.00 | 0.00 | 46 | 1012.6 |
| 20260904041551 | 16 | 160 | 8.0 | 22.5 | 0.00 | 0.00 | 0.00 | 46 | 1012.7 |
| 20260904040103 | 16 | 185 | 8.0 | 27.4 | 0.00 | 0.00 | 0.00 | 46 | 1012.5 |
| 20260904034607 | 16 | 116 | 8.0 | 27.4 | 0.00 | 0.00 | 0.00 | 46 | 1012.3 |
| 20260904033056 | 16 | 175 | 9.7 | 30.6 | 0.00 | 0.00 | 0.00 | 46 | 1012.4 |
| 20260904031551 | 16 | 167 | 6.4 | 29.0 | 0.00 | 0.00 | 0.00 | 46 | 1012.2 |
| 20260904030046 | 16 | 123 | 6.4 | 41.8 | 0.00 | 0.00 | 0.00 | 46 | 1012.2 |
| 20260904024547 | 16 | 163 | 9.7 | 30.6 | 0.00 | 0.00 | 0.00 | 46 | 1012.2 |
| 20260904023055 | 17 | 107 | 4.8 | 24.1 | 0.00 | 0.00 | 0.00 | 45 | 1012.0 |
| 20260904021559 | 17 | 169 | 9.7 | 24.1 | 0.00 | 0.00 | 0.00 | 45 | 1012.0 |
| 20260904020057 | 17 | 173 | 9.7 | 29.0 | 0.00 | 0.00 | 0.00 | 45 | 1012.2 |
| 20260904014640 | 17 | 166 | 11.3 | 29.0 | 0.00 | 0.00 | 0.00 | 43 | 1012.2 |
| 20260904013056 | 17 | 182 | 11.3 | 27.4 | 0.00 | 0.00 | 0.00 | 43 | 1012.2 |
| 20260904011556 | 17 | 175 | 11.3 | 27.4 | 0.00 | 0.00 | 0.00 | 43 | 1012.3 |
| 20260904010107 | 18 | 161 | 9.7 | 40.2 | 0.00 | 0.00 | 0.00 | 42 | 1012.3 |
| 20260904004555 | 18 | 180 | 12.9 | 27.4 | 0.00 | 0.00 | 0.00 | 42 | 1012.5 |
| 20260904003057 | 18 | 184 | 11.3 | 32.2 | 0.00 | 0.00 | 0.00 | 42 | 1012.5 |
| 20260904001548 | 18 | 190 | 14.5 | 37.0 | 0.00 | 0.00 | 0.00 | 43 | 1012.5 |
| 20260903234550 | 18 | 155 | 14.5 | 38.6 | 0.00 | 0.00 | 0.00 | 43 | 1012.9 |
| 20260903233103 | 18 | 161 | 12.9 | 29.0 | 0.00 | 0.00 | 0.00 | 43 | 1013.1 |
| 20260903231546 | 18 | 187 | 16.1 | 37.0 | 0.00 | 0.00 | 0.00 | 43 | 1013.4 |
| 20260903230057 | 18 | 229 | 16.1 | 38.6 | 0.00 | 0.00 | 0.00 | 42 | 1013.4 |
| 20260903224552 | 19 | 192 | 17.7 | 30.6 | 0.00 | 0.00 | 0.00 | 41 | 1013.4 |
| 20260903223055 | 20 | 132 | 17.7 | 41.8 | 0.00 | 0.00 | 0.00 | 40 | 1013.4 |
| 20260903221558 | 20 | 201 | 20.9 | 38.6 | 0.00 | 0.00 | 0.00 | 38 | 1013.5 |
| 20260903220116 | 20 | 165 | 17.7 | 40.2 | 0.00 | 0.00 | 0.00 | 38 | 1013.5 |
| 20260903214545 | 20 | 149 | 20.9 | 38.6 | 0.00 | 0.00 | 0.00 | 37 | 1013.4 |
| 20260903213044 | 20 | 207 | 17.7 | 37.0 | 0.00 | 0.00 | 0.00 | 39 | 1013.4 |
| 20260903211558 | 20 | 157 | 17.7 | 33.8 | 0.00 | 0.00 | 0.00 | 37 | 1013.3 |
| 20260903210058 | 21 | 242 | 16.1 | 30.6 | 0.00 | 0.00 | 0.00 | 36 | 1013.4 |
| 20260903204556 | 21 | 227 | 16.1 | 33.8 | 0.00 | 0.00 | 0.00 | 36 | 1013.4 |
| 20260903203107 | 21 | 209 | 9.7 | 29.0 | 0.00 | 0.00 | 0.00 | 35 | 1013.6 |
| 20260903201557 | 22 | 174 | 8.0 | 27.4 | 0.00 | 0.00 | 0.00 | 34 | 1013.6 |
| 20260903200054 | 22 | 150 | 12.9 | 30.6 | 0.00 | 0.00 | 0.00 | 32 | 1013.7 |
| 20260903194556 | 21 | 211 | 11.3 | 29.0 | 0.00 | 0.00 | 0.00 | 33 | 1013.7 |
| 20260903193049 | 22 | 170 | 8.0 | 24.1 | 0.00 | 0.00 | 0.00 | 33 | 1013.8 |
| 20260903191557 | 21 | 190 | 11.3 | 27.4 | 0.00 | 0.00 | 0.00 | 33 | 1013.8 |
| 20260903190051 | 21 | 232 | 8.0 | 25.7 | 0.00 | 0.00 | 0.00 | 32 | 1014.2 |
| 20260903184546 | 20 | 144 | 4.8 | 19.3 | 0.00 | 0.00 | 0.00 | 33 | 1014.2 |
| 20260903183057 | 20 | 241 | 6.4 | 22.5 | 0.00 | 0.00 | 0.00 | 34 | 1014.5 |
| 20260903181549 | 20 | 163 | 8.0 | 17.7 | 0.00 | 0.00 | 0.00 | 32 | 1014.7 |
| 20260903180049 | 20 | 169 | 9.7 | 22.5 | 0.00 | 0.00 | 0.00 | 32 | 1014.6 |
| 20260903174547 | 20 | 242 | 1.6 | 8.0 | 0.00 | 0.00 | 0.00 | 33 | 1014.7 |
| 20260903173059 | 19 | 0 | 1.6 | 11.3 | 0.00 | 0.00 | 0.00 | 32 | 1014.8 |
| 20260903171553 | 19 | 350 | 0.0 | 6.4 | 0.00 | 0.00 | 0.00 | 33 | 1015.0 |
| 20260903170049 | 19 | 270 | 4.8 | 12.9 | 0.00 | 0.00 | 0.00 | 31 | 1015.2 |
| 20260903164556 | 19 | 57 | 1.6 | 4.8 | 0.00 | 0.00 | 0.00 | 32 | 1015.3 |
| 20260903163047 | 18 | 0 | 0.0 | 4.8 | 0.00 | 0.00 | 0.00 | 30 | 1015.5 |
| 20260903161546 | 18 | 0 | 1.6 | 6.4 | 0.00 | 0.00 | 0.00 | 30 | 1015.7 |
| 20260903160046 | 17 | 0 | 0.0 | 4.8 | 0.00 | 0.00 | 0.00 | 38 | 1015.7 |
| 20260903154554 | 15 | 0 | 0.0 | 3.2 | 0.00 | 0.00 | 0.00 | 46 | 1015.8 |
| 20260903153051 | 12 | 0 | 0.0 | 0.0 | 0.00 | 0.00 | 0.00 | 55 | 1016.1 |
| 20260903151551 | 11 | 0 | 0.0 | 0.0 | 0.00 | 0.00 | 0.00 | 61 | 1016.3 |
| 20260903150106 | 11 | 0 | 0.0 | 3.2 | 0.00 | 0.00 | 0.00 | 62 | 1016.4 |
| 20260903144547 | 11 | 0 | 0.0 | 3.2 | 0.00 | 0.00 | 0.00 | 55 | 1016.1 |
| 20260903143057 | 10 | 0 | 0.0 | 0.0 | 0.00 | 0.00 | 0.00 | 61 | 1015.9 |
| 20260903141549 | 10 | 0 | 0.0 | 1.6 | 0.00 | 0.00 | 0.00 | 62 | 1015.9 |
| 20260903140047 | 8 | 102 | 1.6 | 4.8 | 0.00 | 0.00 | 0.00 | 63 | 1015.8 |
| 20260903134624 | 7 | 0 | 0.0 | 1.6 | 0.00 | 0.00 | 0.00 | 64 | 1015.8 |
| 20260903133101 | 8 | 0 | 0.0 | 0.0 | 0.00 | 0.00 | 0.00 | 63 | 1015.9 |
| 20260903131549 | 8 | 0 | 0.0 | 0.0 | 0.00 | 0.00 | 0.00 | 61 | 1015.9 |
| 20260903130103 | 7 | 0 | 0.0 | 0.0 | 0.00 | 0.00 | 0.00 | 61 | 1015.9 |
| 20260903124557 | 8 | 0 | 0.0 | 6.4 | 0.00 | 0.00 | 0.00 | 60 | 1016.1 |
| 20260903123051 | 9 | 0 | 0.0 | 0.0 | 0.00 | 0.00 | 0.00 | 55 | 1016.2 |